THOR AGENA B R/B, 2174

Orbit data source: Space-Track

THOR AGENA B R/B, 2174 is space debris in SSO originally from a launch on Sun, 15 May 1966 UTC launched from the Air Force Western Test Range (AFWTR). Debris objects in space refer to the collection of defunct objects orbiting the Earth. Examples of debris include non-operational satellites, rocket bodies, and fragments generated from explosions, collisions, or faulty payload assembly.

Loading next visibility...
Identifier
2174, 1966-040B
Orbit
SSO
Last TLE update
14 hours ago
Origin
Manufacturer
LMSC
Mission
Spacecraft
Bus & Motor
AGENA B, Unknown motor
Mass
600 kg wet, 600 kg dry
Launch date (UTC)
1966-05-15 (59 years ago)
Launch vehicle
Unknown
Launch site
Air Force Western Test Range (AFWTR)
Object type
Payload
Rocket body
Debris
Shape & HBR
Cyl + 1 Nozzle, 6.3 m
Radar Cross Section
8.306 m², Large (>1 m²)

Expand to show TLE details & history

TLE from 14 hours ago
0 THOR AGENA B R/B
1 02174U 66040B   25191.77037295 -.00000023  00000-0  43568-4 0  9994
2 02174 100.3133 109.6488 0056311 130.9359 229.6660 13.36272842883625
Epoch: 2025-07-10T18:29Z
TLE epoch observation values (Epoch: 2025-07-10T18:29:20.222Z)
Latitude
0.00001°
Longitude
-96.61735°
Altitude
1,153.423 km
Speed
7.263 km/s
True Right ascension
07h 18m 35s
True Declination
0° 00' 00"
Sunlit
Object was in daylight at epoch
Visualization orbit readout
Latitude
-14.35322°
Longitude
-93.36025°
Altitude
1,162.978 km
Speed
7.255 km/s
Apparent Right ascension
08h 09m 00s
Apparent Declination
-26° 22' 04"
Sunlit
Object is in daylight
Visualization observer readout
Local Sidereal Time
21:05:05
Azimuth
44.987° NE
Elevation
-72.121°
Doppler factor
1
Orbital elements
Apogee altitude
1,162.773 km
Perigee altitude
1,078.321 km
Semi-major axis
7,498.684 km
Eccentricity
0.00563
Inclination
100.3133°
RAAN
109.6488°
Arg. of periapsis
130.9359°
True anomaly
Unknown
Mean anomaly
229.666°
Eccentric anomaly
Unknown
Mean motion
3.34245 °/min
Orbital period
107.71 mins
BSTAR
0.000043568
Loading maneuver chart data...
Loading SW <> Apogee altitude chart data...
Loading historical data...
Loading historical data...
Loading historical data...
Loading historical data...
Loading historical data...
Loading historical data...
Loading historical data...

THOR AGENA B R/B Visibility forecast

Observer location: undefined°, undefined°

Span
Click to sort rows by Start time (UTC) header in descending order
Start Az.
Max El. time (UTC)
Max El. Az.
Max El.
End time (UTC)
End Az.
6 mins2025-07-11 09:27:28.905Z334.617° NNW2025-07-11 09:30:28.905Z306.654° NW13.906°2025-07-11 09:33:28.905Z278.389° WNW
11 mins2025-07-11 17:58:28.905Z144.249° SSE2025-07-11 18:03:28.905Z74.337° E41.213°2025-07-11 18:09:28.905Z352.87° N
8 mins2025-07-11 19:46:28.905Z226.687° WSW2025-07-11 19:50:28.905Z270.715° WNW21.199°2025-07-11 19:54:28.905Z311.061° NW
11 mins2025-07-12 07:02:28.905Z28.855° NE2025-07-12 07:07:28.905Z98.579° ESE38.992°2025-07-12 07:13:28.905Z177.152° S
|